This is the latest recevied weather packets stored in our database for station/object N4AN. If no packets are shown the sender has not sent any weather packets the latest 10 day(s).
| Time | Temp. | Humidity | Pressure | Rain* | Wind** | Luminosity | Snow |
|---|---|---|---|---|---|---|---|
| 1777920882 | 23.33° C | 90% | 1009.2 hPa | 2.29 mm | - | - | - |
| 1777920582 | 23.33° C | 89% | 1009.2 hPa | 4.83 mm | - | - | - |
| 1777920281 | 23.33° C | 89% | 1009.2 hPa | 0 mm | - | - | - |
| 1777919981 | 23.33° C | 89% | 1009.3 hPa | 0 mm | - | - | - |
| 1777919681 | 23.33° C | 90% | 1009.3 hPa | 0 mm | - | - | - |
| 1777919381 | 23.33° C | 90% | 1009.5 hPa | 1.02 mm | - | - | - |
| 1777919080 | 23.33° C | 90% | 1009.7 hPa | 1.52 mm | - | - | - |
| 1777918780 | 23.33° C | 90% | 1009.7 hPa | 4.32 mm | - | - | - |
| 1777918480 | 22.78° C | 90% | 1009.3 hPa | 4.83 mm | - | - | - |
| 1777918179 | 23.33° C | 90% | 1009.3 hPa | 1.78 mm | - | - | - |
| 1777917879 | 23.33° C | 90% | 1009.5 hPa | 4.32 mm | - | - | - |
| 1777917579 | 23.33° C | 89% | 1009.7 hPa | 10.16 mm | - | - | - |
| 1777917277 | 23.33° C | 88% | 1009.8 hPa | 40.89 mm | - | - | - |
| 1777916977 | 23.33° C | 88% | 1009.7 hPa | 0 mm | - | - | - |
| 1777916677 | 23.33° C | 88% | 1009.8 hPa | 0 mm | - | - | - |
| 1777916376 | 23.33° C | 88% | 1009.8 hPa | 0 mm | - | - | - |
| 1777916076 | 23.33° C | 88% | 1009.7 hPa | 0 mm | - | - | - |
| 1777915775 | 23.33° C | 88% | 1009.9 hPa | 0 mm | - | - | - |
| 1777915473 | 23.33° C | 87% | 1010 hPa | 0 mm | - | - | - |
| 1777915173 | 23.33° C | 86% | 1009.8 hPa | 0 mm | - | - | - |
| 1777914872 | 23.89° C | 86% | 1009.9 hPa | 0 mm | - | - | - |
| 1777914572 | 23.89° C | 85% | 1010 hPa | 0 mm | - | - | - |
| 1777914272 | 24.44° C | 84% | 1009.9 hPa | 0 mm | - | - | - |
| 1777913972 | 24.44° C | 83% | 1009.9 hPa | 0 mm | - | - | - |
| 1777913671 | 25° C | 83% | 1009.8 hPa | 0 mm | - | - | - |
* Rain latest hour (hover to see other rain measurements)
** Current wind speed in m/s (hover to see current wind gust speed)